(79631) = 1998 RZ72

Discovered at Socorro on 1998-09-14 by LINEAR.

Orbit

Orbit type: Main Belt

Note: WebGL enabled browser required.

epoch2023-09-13.0
epoch JD2460200.5
perihelion date2023-06-12.99102
perihelion JD2460108.49102
argument of perihelion (°)309.33724
ascending node (°)359.36242
inclination (°)6.68899
eccentricity0.1435516
perihelion distance (AU)2.0098066
Tisserand w.r.t. Jupiter3.5
ΔV w.r.t. Earth (km/sec)9.0
semimajor axis (AU)2.3466756
mean anomaly (°)25.22635
mean daily motion (°/day)0.27417270
aphelion distance (AU)2.684
period (years)3.59
P-vector [x]0.62529660
P-vector [y]-0.67536904
P-vector [z]-0.39099977
Q-vector [x]0.78038611
Q-vector [y]0.54031637
Q-vector [z]0.31473121
absolute magnitude15.44
phase slope0.15
uncertainty0
referenceMPEC 2024-B03
observations used1506
oppositions19
arc length (days)9782
first opposition used1997
last opposition used2024
residual rms (arc-secs)0.62
perturbers coarse indicatorM-v
perturbers precise indicator003Ek
first observation date used1997-04-04.0
last observation date used2024-01-15.0
computer nameMPCLINUX
JD of orbit computation2456819.526724
perihelion JD uncertainty (days)9.4363E-05
argument of perihelion uncertainty (°)4.4934E-05
ascending node uncertainty (°)3.9494E-05
inclination uncertainty (°)7.2866E-06
eccentricity uncertainty 5.7496E-08
perihelion distance uncertainty (AU)1.3668E-07
Minimum Orbit Intersection Distances (in AU)
for orbit epoch: 2460200.5, reference: E2024-B03
Mercury1.57094
Venus1.2826
Earth1.00291
Mars0.61876
Jupiter2.57319
Saturn6.44414
Uranus15.8176
Neptune27.4675

Observations

1535 total observations over interval: 1997 04 04.53915 – 2024 01 15.088477
These data are available for download (format description).

Date (UT) J2000 RA J2000 Dec Magn Location Ref
1997 04 04.53915 12 25 51.96 -05 09 54.1 19.6 V 566 – Haleakala-NEAT/GEODSS MPS 51453
1997 04 04.54754 12 25 51.47 -05 09 52.5 19.7 V 566 – Haleakala-NEAT/GEODSS MPS 51453
1997 04 04.55595 12 25 50.97 -05 09 50.8 19.2 V 566 – Haleakala-NEAT/GEODSS MPS 51453
1998 09 02.45997 01 01 00.58 +06 34 12.7 19.2 V 691 – Steward Observatory, Kitt Peak-Spacewatch MPS 79511
1998 09 02.47851 01 00 59.96 +06 34 14.0 19.0 V 691 – Steward Observatory, Kitt Peak-Spacewatch MPS 79511
1998 09 02.49709 01 00 59.33 +06 34 15.3 19.5 V 691 – Steward Observatory, Kitt Peak-Spacewatch MPS 79511
1998 09 14.36481 00 52 39.07 +06 37 13.2 18.2   704 – Lincoln Laboratory ETS, New Mexico MPS 2647
1998 09 14.38695 00 52 37.85 +06 37 13.2 18.4   704 – Lincoln Laboratory ETS, New Mexico MPS 2648
1998 09 14.40902 00 52 36.65 +06 37 12.1 18.3   704 – Lincoln Laboratory ETS, New Mexico MPS 2648
1998 09 15.40716 00 51 44.35 +06 36 29.4 17.9 R 699 – Lowell Observatory-LONEOS MPS 17493
1998 09 15.43198 00 51 43.04 +06 36 28.7   699 – Lowell Observatory-LONEOS MPS 17493
1998 09 15.45681 00 51 41.60 +06 36 27.3   699 – Lowell Observatory-LONEOS MPS 17493
1998 09 18.37621 00 49 01.30 +06 33 37.1 17.8   704 – Lincoln Laboratory ETS, New Mexico MPS 2648
1998 09 18.38906 00 49 00.49 +06 33 36.4   704 – Lincoln Laboratory ETS, New Mexico MPS 2648
1998 09 18.40257 00 48 59.77 +06 33 34.2   704 – Lincoln Laboratory ETS, New Mexico MPS 2648
1998 09 18.41609 00 48 59.01 +06 33 33.2 18.5   704 – Lincoln Laboratory ETS, New Mexico MPS 2648
1998 09 18.42959 00 48 58.14 +06 33 33.3 18.5   704 – Lincoln Laboratory ETS, New Mexico MPS 2648
1998 09 20.43453 00 47 02.30 +06 30 59.1 17.7 V 691 – Steward Observatory, Kitt Peak-Spacewatch MPS 17493
1998 09 20.45614 00 47 00.97 +06 30 57.2 18.0 V 691 – Steward Observatory, Kitt Peak-Spacewatch MPS 17493
1998 09 20.49183 00 46 58.83 +06 30 53.6 18.5 V 691 – Steward Observatory, Kitt Peak-Spacewatch MPS 17493
1998 09 21.37869 00 46 06.54 +06 29 37.5 18.8 V 691 – Steward Observatory, Kitt Peak-Spacewatch MPS 79511
1998 09 21.41140 00 46 04.53 +06 29 34.4 19.3 V 691 – Steward Observatory, Kitt Peak-Spacewatch MPS 79511
1998 09 21.43259 00 46 03.19 +06 29 32.4 19.0 V 691 – Steward Observatory, Kitt Peak-Spacewatch MPS 79511
1998 10 14.31198 00 22 38.78 +05 39 43.3 17.9 R 699 – Lowell Observatory-LONEOS MPS 37420
1998 10 14.33434 00 22 37.52 +05 39 40.7   699 – Lowell Observatory-LONEOS MPS 37420
1998 10 14.35598 00 22 36.33 +05 39 37.4   699 – Lowell Observatory-LONEOS MPS 37420
2000 02 11.24188 08 39 25.71 +26 26 53.9 18.8   704 – Lincoln Laboratory ETS, New Mexico MPS 51453
2000 02 11.25640 08 39 24.78 +26 26 54.9 19.0   704 – Lincoln Laboratory ETS, New Mexico MPS 51453
2000 02 11.28555 08 39 23.01 +26 26 56.4 19.2   704 – Lincoln Laboratory ETS, New Mexico MPS 51453
2002 09 06.40287 04 36 17.49 +27 33 47.2 19.9   704 – Lincoln Laboratory ETS, New Mexico MPS 60757
2002 09 06.41733 04 36 18.42 +27 33 51.1 19.9   704 – Lincoln Laboratory ETS, New Mexico MPS 60757
2002 09 06.43186 04 36 19.31 +27 33 57.1 20.0   704 – Lincoln Laboratory ETS, New Mexico MPS 60757
2002 09 06.44634 04 36 20.09 +27 34 00.3 20.2   704 – Lincoln Laboratory ETS, New Mexico MPS 60757
2002 10 04.42263 04 54 31.53 +29 51 26.8 19.7   704 – Lincoln Laboratory ETS, New Mexico MPS 62591
2002 10 04.43825 04 54 31.72 +29 51 30.7 19.9   704 – Lincoln Laboratory ETS, New Mexico MPS 62591
2002 10 04.46972 04 54 32.18 +29 51 40.2 20.0   704 – Lincoln Laboratory ETS, New Mexico MPS 62591
2002 11 06.32327 04 43 22.44 +31 46 07.1 19.5   704 – Lincoln Laboratory ETS, New Mexico MPS 65353
2002 11 06.35717 04 43 20.57 +31 46 10.3 19.4   704 – Lincoln Laboratory ETS, New Mexico MPS 65353
2002 11 06.37383 04 43 19.62 +31 46 12.7 19.6   704 – Lincoln Laboratory ETS, New Mexico MPS 65353
2002 11 06.39054 04 43 18.68 +31 46 14.3 19.1   704 – Lincoln Laboratory ETS, New Mexico MPS 65353
2002 11 15.32377 04 34 08.58 +31 56 45.8 18.4   704 – Lincoln Laboratory ETS, New Mexico MPS 65353
2002 11 15.34099 04 34 07.32 +31 56 46.0 18.5   704 – Lincoln Laboratory ETS, New Mexico MPS 65353
2002 11 15.35854 04 34 06.15 +31 56 46.3 18.6   704 – Lincoln Laboratory ETS, New Mexico MPS 65353
2002 11 15.37569 04 34 04.90 +31 56 47.0 18.9   704 – Lincoln Laboratory ETS, New Mexico MPS 65353
2002 12 05.22433 04 10 01.66 +31 32 08.0 18.7   704 – Lincoln Laboratory ETS, New Mexico MPS 67450
2002 12 05.24000 04 10 00.67 +31 32 05.1 19.2   704 – Lincoln Laboratory ETS, New Mexico MPS 67450
2002 12 05.27082 04 09 58.23 +31 32 01.0 18.2   704 – Lincoln Laboratory ETS, New Mexico MPS 67450
2002 12 05.28614 04 09 57.10 +31 31 57.9 18.6   704 – Lincoln Laboratory ETS, New Mexico MPS 67450
2003 01 04.18501 03 45 27.80 +29 40 12.2 19.8   704 – Lincoln Laboratory ETS, New Mexico MPS 69482
2003 01 04.20168 03 45 27.29 +29 40 07.3 19.7   704 – Lincoln Laboratory ETS, New Mexico MPS 69482
2003 01 04.21824 03 45 27.02 +29 40 04.1 19.3   704 – Lincoln Laboratory ETS, New Mexico MPS 69482
2003 01 04.23496 03 45 26.64 +29 39 59.4 19.3   704 – Lincoln Laboratory ETS, New Mexico MPS 69482
2003 02 01.15987 03 48 44.12 +28 28 24.4 19.4   704 – Lincoln Laboratory ETS, New Mexico MPS 71075
2003 02 01.17524 03 48 44.62 +28 28 23.5 19.6   704 – Lincoln Laboratory ETS, New Mexico MPS 71075
2003 02 01.18073 03 48 44.83 +28 28 24.5 20.2   644 – Palomar Mountain/NEAT MPS 71075
2003 02 01.20187 03 48 45.48 +28 28 22.7 19.8   644 – Palomar Mountain/NEAT MPS 71075
2003 02 01.20619 03 48 45.51 +28 28 20.4 19.7   704 – Lincoln Laboratory ETS, New Mexico MPS 71075
2003 02 01.22178 03 48 46.06 +28 28 19.6 19.5   704 – Lincoln Laboratory ETS, New Mexico MPS 71075
2003 02 01.22306 03 48 46.15 +28 28 20.6 19.9   644 – Palomar Mountain/NEAT MPS 71075
2003 02 19.11052 04 02 17.11 +28 17 03.0 19.4   644 – Palomar Mountain/NEAT MPS 73655
2003 02 19.12088 04 02 17.69 +28 17 02.9 20.3   644 – Palomar Mountain/NEAT MPS 73655
2003 02 19.13142 04 02 18.28 +28 17 02.7 20.1   644 – Palomar Mountain/NEAT MPS 73655
2003 12 22.47118 11 41 33.93 +05 50 47.7 22.0 V 691 – Steward Observatory, Kitt Peak-Spacewatch MPS 94408
2003 12 22.47976 11 41 34.22 +05 50 45.2 22.1 V 691 – Steward Observatory, Kitt Peak-Spacewatch MPS 94408
2003 12 22.48846 11 41 34.53 +05 50 42.8 21.5 V 691 – Steward Observatory, Kitt Peak-Spacewatch MPS 94408
2004 01 29.33885 11 50 06.53 +04 34 05.3 19.4   704 – Lincoln Laboratory ETS, New Mexico MPS 97543
2004 01 29.35106 11 50 06.29 +04 34 07.5 19.9   704 – Lincoln Laboratory ETS, New Mexico MPS 97543
2004 01 29.36313 11 50 06.04 +04 34 05.1 19.7   704 – Lincoln Laboratory ETS, New Mexico MPS 97543
2004 01 29.38800 11 50 05.65 +04 34 08.1 19.3   704 – Lincoln Laboratory ETS, New Mexico MPS 97543
2004 02 14.36427 11 42 29.01 +05 01 55.8 19.6 V 703 – Catalina Sky Survey MPS 98548
2004 02 14.37339 11 42 28.64 +05 01 57.1 20.1 V 703 – Catalina Sky Survey MPS 98548
2004 02 14.38252 11 42 28.28 +05 01 59.3 19.4 V 703 – Catalina Sky Survey MPS 98548
2004 02 14.39169 11 42 27.81 +05 02 00.0 19.8 V 703 – Catalina Sky Survey MPS 98548
2004 02 18.34976 11 39 33.64 +05 13 44.6 19.3   704 – Lincoln Laboratory ETS, New Mexico MPS 98548
2004 02 18.36138 11 39 33.02 +05 13 45.9 19.7   704 – Lincoln Laboratory ETS, New Mexico MPS 98548
2004 02 18.37305 11 39 32.48 +05 13 48.0 19.7   704 – Lincoln Laboratory ETS, New Mexico MPS 98548
2004 02 18.38470 11 39 31.93 +05 13 51.3 20.0   704 – Lincoln Laboratory ETS, New Mexico MPS 98548
2004 02 18.39690 11 39 31.38 +05 13 53.4 19.7   704 – Lincoln Laboratory ETS, New Mexico MPS 98548
2004 02 23.33876 11 35 24.67 +05 30 37.9 19.0   704 – Lincoln Laboratory ETS, New Mexico MPS 99934
2004 02 23.35130 11 35 23.99 +05 30 40.4 19.4   704 – Lincoln Laboratory ETS, New Mexico MPS 99934
2004 02 23.36353 11 35 23.30 +05 30 42.9 19.0   704 – Lincoln Laboratory ETS, New Mexico MPS 99934
2004 02 23.37581 11 35 22.65 +05 30 45.2 18.9   704 – Lincoln Laboratory ETS, New Mexico MPS 99934
2004 02 23.39395 11 35 21.68 +05 30 49.4 19.0   704 – Lincoln Laboratory ETS, New Mexico MPS 99934
2004 02 27.33846 11 31 45.24 +05 45 25.9 18.5 R 695 – Kitt Peak MPS 100844
2004 02 27.43247 11 31 39.74 +05 45 47.3   695 – Kitt Peak MPS 100844
